SCP
0 0 0 -0 0 -0 -0 -0 -0 -0 -0 -0 -0 -0 -0 -0 -0 -0 -0 -0 -0 -0 -0 -0 -0 -0 -0 -0 -0 -0 -0 -0 -0 -0 -0 -0 -0 -0 -0 -0 -0 0 -0
0 0 0 0 0 0 0 0 -0 -0 -0 -0 -0 -0 -0 -0 -0 -0 -0 -0 -0 -0 -0 -0 -0 -0 -0 -0 -0 -0 -0 -0 -0 -0 -0 -0 -0 -0 -0 -0 -0 -0 -0
0 0 0 0 0 0 0 -0 0 -0 -0 -0 -0 -0 -0 -0 -0 -0 -0 -0 -0 -0 -0 -0 -0 -0 -0 -0 -0 -0 -0 -0 -0 -0 -0 0 0 -0 -0 -0 -0 -0 -0
0 0 0 0 0 0 0 0 0 -0 -0 -0 -0 -0 -0 -0 -0 -0 -0 0 -0 -0 -0 -0 -0 -0 -0 -0 -0 -0 -0 -0 -0 -0 0 0 0 -0 -0 -0 -0 -0 -0
0 0 0 0 0 0 0 0 0 -0 -0 -0 -0 -0 -0 -0 0 -0 -0 -0 -0 -0 -0 -0 -0 -0 -0 -0 -0 -0 -0 -0 -0 0 -0 -0 0 -0 -0 -0 -0 0 0
0 0 0 0 0 0 0 0 0 0 0 -0 -0 -0 -0 -0 -0 -0 -0 -0 -0 -0 -0 -0 -0 -0 -0 -0 -0 -0 -0 -0 0 0 0 0 0 0 0 0 0 0 0
0 0 0 0 0 0 0 0 0 0 0 0 0 -0 -0 -0 -0 -0 -0 0 0 -0 0 -0 -0 -0 -0 -0 -0 -0 -0 0 0 0 0 0 0 0 0 0 0 0 0
0 0 0 0 0 0 0 0 0 0 0 -0 -0 -0 -0 -0 -0 -0 -0 -0 -0 -0 -0 -0 -0 -0 -0 0 0 0 0 0 0 0 0 0 0 0 0 0 0 0 0
0 0 -0 -0 0 0 0 0 0 0 0 0 -0 -0 -0 -0 -0 -0 -0 -0 -0 -0 -0 -0 -0 0 0 0 0 0 0 0 0 0 0 0 0 0 0 0 0 0 0
-0 0 -0 -0 -0 0 0 0 0 0 0 -0 0 0 0 -0 -0 -0 -0 -0 -0 -0 -0 0 0 0 0 0 0 0 0 0 0 0 0 0 0 0 0 0 0 0 0
0 -0 -0 -0 -0 0 0 0 0 0 0 0 0 0 0 0 0 0 -0 0 -0 0 0 0 0 0 0 0 0 0 0 0 0 0 0 0 0 0 0 0 0 0 0
-0 -0 -0 -0 -0 -0 0 -0 -0 0 0 0 0 0 0 0 0 0 0 -0 -0 0 -0 -0 0 0 0 0 0 0 0 0 0 0 0 0 0 0 0 0 0 0 0
-0 -0 -0 -0 -0 -0 -0 0 0 0 0 0 0 0 0 -0 0 0 0 0 0 -0 0 0 0 0 0 0 0 0 0 0 0 0 0 0 0 0 0 0 0 0 0
-0 -0 -0 -0 -0 -0 -0 -0 -0 -0 -0 -0 -0 -0 -0 0 0 -0 -0 0 0 0 0 0 0 0 0 0 0 0 0 0 0 0 0 0 0 0 0 0 0 0 0
0 -0 -0 -0 -0 -0 -0 -0 -0 -0 -0 -0 -0 -0 -0 -0 -0 0 0 0 0 0 0 0 0 0 0 0 0 0 0 0 0 0 0 0 0 0 0 0 0 0 0
0 -0 -0 -0 -0 -0 -0 -0 -0 -0 -0 -0 0 0 0 0 0 0 0 0 0 0 0 0 0 0 0 0 0 0 0 0 0 0 0 0 0 0 0 0 0 0 0
0 0 0 -0 -0 -0 -0 -0 -0 0 0 0 0 0 0 0 0 0 0 0 0 0 0 0 0 0 0 0 0 0 0 0 0 0 0 0 0 0 0 0 0 0 0
0 0 0 0 0 0 0 0 0 0 0 0 0 0 0 0 0 0 0 0 0 0 0 0 0 0 0 0 0 0 0 0 0 0 0 0 0 0 0 0 0 0 0
0 0 0 0 0 0 0 0 0 0 0 0 0 0 0 0 0 0 0 0 0 0 0 0 0 0 0 0 0 0 0 0 0 0 0 0 0 0 0 0 0 0 0
0 0 0 0 0 0 0 0 0 0 0 0 0 0 0 0 0 0 0 0 0 0 0 0 0 0 0 0 0 0 0 0 0 0 0 0 0 0 0 0 0 0 0
0 0 0 0 0 0 0 0 0 0 0 0 0 0 0 0 0 0 0 0 0 0 0 0 0 0 0 0 0 0 0 0 0 0 0 0 0 0 0 0 0 0 0
0 0 0 0 0 0 0 0 0 0 0 0 0 0 0 0 0 0 0 0 0 0 0 0 0 0 0 0 0 0 0 0 0 0 0 0 0 0 0 0 0 0 0
0 0 0 0 0 0 0 0 0 0 0 0 0 0 0 0 0 0 0 0 0 0 0 0 0 0 0 0 0 0 0 0 0 0 0 0 0 0 0 0 0 0 0
0 0 0 0 0 0 0 0 0 0 0 0 0 0 0 0 0 0 0 0 0 0 0 0 0 0 0 0 0 0 0 0 0 0 0 0 0 0 0 0 0 0 0
0 0 0 0 0 0 0 0 0 0 0 0 0 0 0 0 0 0 0 0 0 0 0 0 0 0 0 0 0 0 0 0 0 0 0 0 0 0 0 0 0 0 0
0 0 0 0 0 0 0 0 0 0 0 0 0 0 0 0 0 0 0 0 0 0 0 0 0 0 0 0 0 0 0 0 0 0 0 0 0 0 0 0 0 0 0
Wind_Speed_500mb
28 23 18 10 14 16 20 21 23 21 22 25 28 29 28 28 28 30 29 28 29 32 35 33 32 31 31 31 29 26 24 23 23 24 25 24 28 27 24 21 19 22 20
27 25 20 14 14 16 16 20 23 19 21 23 23 22 20 22 21 27 26 21 21 33 35 31 30 29 29 28 26 25 24 24 25 25 29 37 36 32 27 22 20 19 19
27 26 23 17 16 20 25 31 27 18 20 20 22 22 23 25 28 26 22 15 20 32 31 28 25 29 28 27 29 31 30 29 27 26 25 32 33 32 32 31 32 32 26
26 26 24 19 18 23 26 33 29 23 27 26 26 27 28 33 35 29 22 22 21 31 29 27 26 28 32 35 35 32 31 30 28 27 32 35 37 34 31 26 26 25 28
28 26 26 22 21 24 27 27 26 28 31 33 32 30 27 26 25 32 28 28 27 28 29 25 28 33 35 34 34 34 31 29 28 29 34 38 29 29 28 23 22 22 20
28 27 28 23 23 25 27 27 27 28 29 30 29 30 28 25 24 23 24 28 30 24 29 26 29 34 32 33 33 34 32 33 31 31 32 31 28 28 32 29 24 25 24
29 28 29 24 24 26 26 27 27 27 28 29 28 28 28 27 24 23 24 23 24 23 26 26 25 26 28 31 32 31 30 30 30 30 30 30 27 27 31 31 29 26 27
26 28 30 26 24 24 25 25 25 26 27 27 26 26 26 26 25 24 22 22 21 22 24 24 22 22 25 27 29 31 31 30 31 32 30 29 28 29 31 33 34 30 31
28 27 29 29 25 23 21 22 23 24 24 24 24 23 23 23 22 21 20 21 20 21 23 21 20 20 22 24 25 28 30 31 31 32 32 31 31 32 34 34 33 32 30
32 28 27 30 28 24 24 20 19 19 20 20 20 19 20 18 18 18 17 17 18 17 20 18 17 17 18 19 21 24 26 27 29 30 31 33 33 34 33 32 32 32 30
38 35 30 29 30 27 23 22 19 17 16 16 16 16 16 16 15 14 15 15 14 15 14 13 12 12 14 16 18 19 21 23 26 26 26 26 27 30 31 31 30 29 28
48 41 37 30 29 29 25 21 19 17 14 13 13 13 14 14 13 12 11 12 11 11 10 8 8 10 10 12 14 15 16 17 20 21 22 23 24 25 24 25 25 26 26
50 45 39 36 30 28 27 23 20 18 14 12 10 10 11 11 12 12 11 10 9 8 6 5 6 8 8 8 9 10 10 13 16 17 18 19 21 22 23 23 25 26 26
52 47 43 40 35 30 28 25 20 17 15 12 9 8 7 7 8 9 9 8 7 6 5 3 2 5 5 5 7 6 6 8 12 13 15 18 20 22 25 27 29 31 31
56 51 46 42 39 34 30 28 24 20 17 15 13 10 8 6 6 6 6 6 5 4 3 3 2 3 3 4 4 3 3 5 8 11 15 18 21 24 26 28 30 30 30
56 53 48 45 40 37 34 30 27 24 21 20 18 16 14 12 10 7 6 5 4 3 3 4 3 4 4 4 5 6 6 8 10 14 17 21 25 28 30 32 34 36 35
51 48 48 44 42 41 37 33 31 28 27 26 23 22 20 19 17 14 12 9 9 8 7 6 6 6 6 6 6 7 9 11 13 17 22 27 30 30 32 36 35 36 37
49 46 45 45 42 41 39 37 35 34 33 32 31 30 28 25 25 25 19 14 15 14 14 13 12 10 10 10 11 13 15 17 20 24 28 33 31 35 30 32 34 36 34
50 48 48 46 44 41 39 38 36 35 35 34 35 35 33 29 28 22 19 18 20 19 18 18 16 15 12 13 17 21 21 23 26 28 25 27 26 24 27 31 33 32 31
52 49 49 49 45 43 40 40 41 41 38 33 34 35 33 31 26 27 26 24 24 22 21 20 19 18 18 19 21 21 23 26 22 22 20 23 27 28 29 31 31 31 35
54 57 57 56 52 50 49 48 47 48 43 41 41 35 33 34 35 33 30 29 29 26 23 22 19 18 19 20 23 24 28 30 21 22 11 29 28 24 26 31 34 37 41
52 59 60 60 58 57 55 51 49 44 45 44 43 40 30 40 38 38 38 37 37 36 33 30 29 26 26 28 32 32 27 28 18 16 29 29 29 28 27 41 38 42 46
57 60 60 61 60 59 58 57 57 58 57 54 51 44 44 39 35 38 44 44 44 43 40 35 34 33 33 32 36 28 17 14 24 37 33 30 34 32 30 38 42 46 41
62 57 60 60 61 62 59 62 61 62 60 55 50 47 44 31 31 30 38 44 45 45 43 41 37 39 42 44 45 39 33 36 28 18 29 38 34 43 42 40 45 38 35
60 61 63 65 65 66 65 66 63 62 58 51 46 43 43 39 37 34 38 39 42 43 42 42 43 46 45 40 35 32 35 32 30 29 30 40 49 46 44 41 35 36 40
65 65 65 70 70 71 70 69 70 67 62 57 52 49 43 43 42 40 36 37 37 41 44 43 41 41 35 34 34 36 31 29 30 31 32 42 50 48 36 31 35 41 40
Wind_Direction_500mb
150 135 131 109 107 110 113 116 109 123 133 132 122 108 101 96 90 90 93 97 93 88 87 93 92 89 85 81 79 76 71 65 57 52 48 53 62 64 67 68 71 73 71
144 140 134 115 97 106 104 104 115 111 129 145 143 133 110 91 86 95 103 105 90 88 91 86 89 88 79 75 72 69 67 65 63 61 62 69 64 58 65 62 61 65 60
146 140 139 123 100 101 102 106 97 98 111 127 136 137 128 104 91 92 97 100 90 90 92 88 84 77 72 69 70 75 73 68 62 58 58 65 66 59 63 57 66 64 65
144 141 140 126 107 106 108 109 113 96 96 101 105 128 131 122 106 100 92 81 94 89 91 82 75 75 71 68 67 70 68 63 58 52 64 62 60 56 70 77 74 71 66
147 145 140 129 115 112 109 112 103 89 90 94 97 100 109 127 130 124 116 103 95 94 96 87 86 81 70 64 66 66 66 60 59 61 59 63 61 49 53 62 65 57 51
148 148 143 135 123 115 109 105 95 90 89 91 96 101 103 102 103 105 107 108 108 104 100 92 80 71 62 59 62 65 64 62 61 62 66 69 52 49 52 58 63 64 59
152 156 146 144 132 121 111 105 100 97 94 94 96 97 93 92 93 95 96 99 107 100 102 94 86 73 66 61 67 67 66 65 63 64 62 61 56 49 53 58 63 63 54
158 161 152 150 139 130 120 112 106 100 96 92 93 96 95 94 92 94 97 103 104 99 106 98 90 77 70 65 66 64 63 67 66 65 61 59 56 53 54 55 56 55 52
165 170 164 155 152 143 131 118 113 107 99 95 93 95 94 93 94 96 100 109 110 102 106 96 83 74 69 65 66 63 65 69 69 67 64 61 55 54 52 52 51 51 50
171 175 175 166 163 158 147 137 125 115 105 99 96 93 93 94 98 98 97 100 102 101 102 96 85 76 72 68 67 65 68 69 68 64 61 60 58 56 53 51 49 46 45
181 178 182 180 172 169 164 154 145 134 121 108 102 102 100 96 98 101 106 109 109 108 103 93 79 70 67 66 65 67 68 65 62 59 58 60 57 54 49 45 41 39 37
183 183 182 188 183 178 176 173 162 155 142 126 113 110 105 98 99 109 113 114 118 121 118 104 71 48 49 57 58 62 66 63 58 56 57 53 50 46 41 36 30 26 22
185 185 188 186 192 189 186 187 183 173 165 152 134 119 117 107 99 110 121 126 126 134 127 99 61 37 39 43 48 53 61 54 48 52 50 43 38 30 26 20 14 9 5
196 191 191 191 192 197 196 196 198 193 185 179 169 154 138 130 115 106 113 123 132 141 149 142 49 15 20 31 34 39 50 45 40 37 30 23 16 8 3 359 354 351 347
202 199 198 199 197 199 205 205 206 209 206 205 204 201 201 192 171 150 128 120 126 143 170 204 240 322 343 352 359 1 3 16 18 16 8 2 356 350 344 340 337 335 331
206 205 204 205 207 207 210 215 217 218 219 224 225 224 225 228 227 221 204 185 188 196 211 231 252 291 315 314 316 315 316 329 338 344 343 343 340 334 329 328 325 323 320
212 212 211 212 214 216 218 221 226 230 232 232 235 239 240 242 242 243 242 239 243 250 255 263 272 286 299 304 305 304 304 312 318 322 324 330 326 318 320 322 318 318 317
217 217 217 218 220 223 225 228 231 234 239 241 241 242 243 244 247 248 246 250 260 262 266 270 274 282 290 295 300 304 306 309 311 312 318 319 320 320 310 318 320 318 314
222 219 222 221 225 227 228 230 233 235 240 241 243 246 246 244 254 245 253 261 265 262 268 271 275 282 292 299 302 302 300 303 304 307 315 321 314 328 326 323 322 320 317
227 226 227 229 228 229 230 233 233 231 234 238 243 244 244 252 248 247 253 260 265 269 270 278 285 285 292 295 299 304 306 312 306 326 310 332 320 318 323 321 316 316 315
229 226 226 229 228 228 228 229 232 235 233 236 239 241 241 241 246 252 256 255 263 271 276 270 273 279 288 291 294 299 302 298 314 312 285 326 325 324 330 329 323 318 317
230 231 229 230 231 232 234 233 238 244 244 242 244 246 250 246 249 253 255 259 263 268 269 274 274 277 278 283 285 296 296 308 298 304 308 318 323 321 323 329 324 323 322
232 232 232 232 231 230 233 236 239 244 245 243 243 243 248 248 246 247 258 259 262 263 265 267 267 270 272 272 275 278 289 283 286 307 307 318 315 316 323 323 324 327 326
235 236 236 235 233 232 231 236 238 244 246 248 248 247 251 255 250 251 243 257 260 262 263 264 266 267 269 270 273 275 283 288 277 279 295 314 315 319 324 330 334 334 331
239 237 237 235 235 234 232 236 240 242 244 245 250 248 244 248 251 253 248 248 251 257 259 259 259 264 267 270 272 279 280 283 289 281 294 308 310 315 333 339 336 336 335
239 237 235 232 233 235 235 237 242 244 245 243 242 244 239 251 257 262 264 256 247 254 258 260 260 266 270 273 275 275 272 270 278 281 292 303 310 318 337 335 329 331 335
Wind_Speed_850mb
28 23 18 10 14 16 20 21 23 21 22 25 28 29 28 28 28 30 29 28 29 32 35 33 32 31 31 31 29 26 24 23 23 24 25 24 28 27 24 21 19 22 20
27 25 20 14 14 16 16 20 23 19 21 23 23 22 20 22 21 27 26 21 21 33 35 31 30 29 29 28 26 25 24 24 25 25 29 37 36 32 27 22 20 19 19
27 26 23 17 16 20 25 31 27 18 20 20 22 22 23 25 28 26 22 15 20 32 31 28 25 29 28 27 29 31 30 29 27 26 25 32 33 32 32 31 32 32 26
26 26 24 19 18 23 26 33 29 23 27 26 26 27 28 33 35 29 22 22 21 31 29 27 26 28 32 35 35 32 31 30 28 27 32 35 37 34 31 26 26 25 28
28 26 26 22 21 24 27 27 26 28 31 33 32 30 27 26 25 32 28 28 27 28 29 25 28 33 35 34 34 34 31 29 28 29 34 38 29 29 28 23 22 22 20
28 27 28 23 23 25 27 27 27 28 29 30 29 30 28 25 24 23 24 28 30 24 29 26 29 34 32 33 33 34 32 33 31 31 32 31 28 28 32 29 24 25 24
29 28 29 24 24 26 26 27 27 27 28 29 28 28 28 27 24 23 24 23 24 23 26 26 25 26 28 31 32 31 30 30 30 30 30 30 27 27 31 31 29 26 27
26 28 30 26 24 24 25 25 25 26 27 27 26 26 26 26 25 24 22 22 21 22 24 24 22 22 25 27 29 31 31 30 31 32 30 29 28 29 31 33 34 30 31
28 27 29 29 25 23 21 22 23 24 24 24 24 23 23 23 22 21 20 21 20 21 23 21 20 20 22 24 25 28 30 31 31 32 32 31 31 32 34 34 33 32 30
32 28 27 30 28 24 24 20 19 19 20 20 20 19 20 18 18 18 17 17 18 17 20 18 17 17 18 19 21 24 26 27 29 30 31 33 33 34 33 32 32 32 30
38 35 30 29 30 27 23 22 19 17 16 16 16 16 16 16 15 14 15 15 14 15 14 13 12 12 14 16 18 19 21 23 26 26 26 26 27 30 31 31 30 29 28
48 41 37 30 29 29 25 21 19 17 14 13 13 13 14 14 13 12 11 12 11 11 10 8 8 10 10 12 14 15 16 17 20 21 22 23 24 25 24 25 25 26 26
50 45 39 36 30 28 27 23 20 18 14 12 10 10 11 11 12 12 11 10 9 8 6 5 6 8 8 8 9 10 10 13 16 17 18 19 21 22 23 23 25 26 26
52 47 43 40 35 30 28 25 20 17 15 12 9 8 7 7 8 9 9 8 7 6 5 3 2 5 5 5 7 6 6 8 12 13 15 18 20 22 25 27 29 31 31
56 51 46 42 39 34 30 28 24 20 17 15 13 10 8 6 6 6 6 6 5 4 3 3 2 3 3 4 4 3 3 5 8 11 15 18 21 24 26 28 30 30 30
56 53 48 45 40 37 34 30 27 24 21 20 18 16 14 12 10 7 6 5 4 3 3 4 3 4 4 4 5 6 6 8 10 14 17 21 25 28 30 32 34 36 35
51 48 48 44 42 41 37 33 31 28 27 26 23 22 20 19 17 14 12 9 9 8 7 6 6 6 6 6 6 7 9 11 13 17 22 27 30 30 32 36 35 36 37
49 46 45 45 42 41 39 37 35 34 33 32 31 30 28 25 25 25 19 14 15 14 14 13 12 10 10 10 11 13 15 17 20 24 28 33 31 35 30 32 34 36 34
50 48 48 46 44 41 39 38 36 35 35 34 35 35 33 29 28 22 19 18 20 19 18 18 16 15 12 13 17 21 21 23 26 28 25 27 26 24 27 31 33 32 31
52 49 49 49 45 43 40 40 41 41 38 33 34 35 33 31 26 27 26 24 24 22 21 20 19 18 18 19 21 21 23 26 22 22 20 23 27 28 29 31 31 31 35
54 57 57 56 52 50 49 48 47 48 43 41 41 35 33 34 35 33 30 29 29 26 23 22 19 18 19 20 23 24 28 30 21 22 11 29 28 24 26 31 34 37 41
52 59 60 60 58 57 55 51 49 44 45 44 43 40 30 40 38 38 38 37 37 36 33 30 29 26 26 28 32 32 27 28 18 16 29 29 29 28 27 41 38 42 46
57 60 60 61 60 59 58 57 57 58 57 54 51 44 44 39 35 38 44 44 44 43 40 35 34 33 33 32 36 28 17 14 24 37 33 30 34 32 30 38 42 46 41
62 57 60 60 61 62 59 62 61 62 60 55 50 47 44 31 31 30 38 44 45 45 43 41 37 39 42 44 45 39 33 36 28 18 29 38 34 43 42 40 45 38 35
60 61 63 65 65 66 65 66 63 62 58 51 46 43 43 39 37 34 38 39 42 43 42 42 43 46 45 40 35 32 35 32 30 29 30 40 49 46 44 41 35 36 40
65 65 65 70 70 71 70 69 70 67 62 57 52 49 43 43 42 40 36 37 37 41 44 43 41 41 35 34 34 36 31 29 30 31 32 42 50 48 36 31 35 41 40
Wind_Direction_850mb
150 135 131 109 107 110 113 116 109 123 133 132 122 108 101 96 90 90 93 97 93 88 87 93 92 89 85 81 79 76 71 65 57 52 48 53 62 64 67 68 71 73 71
144 140 134 115 97 106 104 104 115 111 129 145 143 133 110 91 86 95 103 105 90 88 91 86 89 88 79 75 72 69 67 65 63 61 62 69 64 58 65 62 61 65 60
146 140 139 123 100 101 102 106 97 98 111 127 136 137 128 104 91 92 97 100 90 90 92 88 84 77 72 69 70 75 73 68 62 58 58 65 66 59 63 57 66 64 65
144 141 140 126 107 106 108 109 113 96 96 101 105 128 131 122 106 100 92 81 94 89 91 82 75 75 71 68 67 70 68 63 58 52 64 62 60 56 70 77 74 71 66
147 145 140 129 115 112 109 112 103 89 90 94 97 100 109 127 130 124 116 103 95 94 96 87 86 81 70 64 66 66 66 60 59 61 59 63 61 49 53 62 65 57 51
148 148 143 135 123 115 109 105 95 90 89 91 96 101 103 102 103 105 107 108 108 104 100 92 80 71 62 59 62 65 64 62 61 62 66 69 52 49 52 58 63 64 59
152 156 146 144 132 121 111 105 100 97 94 94 96 97 93 92 93 95 96 99 107 100 102 94 86 73 66 61 67 67 66 65 63 64 62 61 56 49 53 58 63 63 54
158 161 152 150 139 130 120 112 106 100 96 92 93 96 95 94 92 94 97 103 104 99 106 98 90 77 70 65 66 64 63 67 66 65 61 59 56 53 54 55 56 55 52
165 170 164 155 152 143 131 118 113 107 99 95 93 95 94 93 94 96 100 109 110 102 106 96 83 74 69 65 66 63 65 69 69 67 64 61 55 54 52 52 51 51 50
171 175 175 166 163 158 147 137 125 115 105 99 96 93 93 94 98 98 97 100 102 101 102 96 85 76 72 68 67 65 68 69 68 64 61 60 58 56 53 51 49 46 45
181 178 182 180 172 169 164 154 145 134 121 108 102 102 100 96 98 101 106 109 109 108 103 93 79 70 67 66 65 67 68 65 62 59 58 60 57 54 49 45 41 39 37
183 183 182 188 183 178 176 173 162 155 142 126 113 110 105 98 99 109 113 114 118 121 118 104 71 48 49 57 58 62 66 63 58 56 57 53 50 46 41 36 30 26 22
185 185 188 186 192 189 186 187 183 173 165 152 134 119 117 107 99 110 121 126 126 134 127 99 61 37 39 43 48 53 61 54 48 52 50 43 38 30 26 20 14 9 5
196 191 191 191 192 197 196 196 198 193 185 179 169 154 138 130 115 106 113 123 132 141 149 142 49 15 20 31 34 39 50 45 40 37 30 23 16 8 3 359 354 351 347
202 199 198 199 197 199 205 205 206 209 206 205 204 201 201 192 171 150 128 120 126 143 170 204 240 322 343 352 359 1 3 16 18 16 8 2 356 350 344 340 337 335 331
206 205 204 205 207 207 210 215 217 218 219 224 225 224 225 228 227 221 204 185 188 196 211 231 252 291 315 314 316 315 316 329 338 344 343 343 340 334 329 328 325 323 320
212 212 211 212 214 216 218 221 226 230 232 232 235 239 240 242 242 243 242 239 243 250 255 263 272 286 299 304 305 304 304 312 318 322 324 330 326 318 320 322 318 318 317
217 217 217 218 220 223 225 228 231 234 239 241 241 242 243 244 247 248 246 250 260 262 266 270 274 282 290 295 300 304 306 309 311 312 318 319 320 320 310 318 320 318 314
222 219 222 221 225 227 228 230 233 235 240 241 243 246 246 244 254 245 253 261 265 262 268 271 275 282 292 299 302 302 300 303 304 307 315 321 314 328 326 323 322 320 317
227 226 227 229 228 229 230 233 233 231 234 238 243 244 244 252 248 247 253 260 265 269 270 278 285 285 292 295 299 304 306 312 306 326 310 332 320 318 323 321 316 316 315
229 226 226 229 228 228 228 229 232 235 233 236 239 241 241 241 246 252 256 255 263 271 276 270 273 279 288 291 294 299 302 298 314 312 285 326 325 324 330 329 323 318 317
230 231 229 230 231 232 234 233 238 244 244 242 244 246 250 246 249 253 255 259 263 268 269 274 274 277 278 283 285 296 296 308 298 304 308 318 323 321 323 329 324 323 322
232 232 232 232 231 230 233 236 239 244 245 243 243 243 248 248 246 247 258 259 262 263 265 267 267 270 272 272 275 278 289 283 286 307 307 318 315 316 323 323 324 327 326
235 236 236 235 233 232 231 236 238 244 246 248 248 247 251 255 250 251 243 257 260 262 263 264 266 267 269 270 273 275 283 288 277 279 295 314 315 319 324 330 334 334 331
239 237 237 235 235 234 232 236 240 242 244 245 250 248 244 248 251 253 248 248 251 257 259 259 259 264 267 270 272 279 280 283 289 281 294 308 310 315 333 339 336 336 335
239 237 235 232 233 235 235 237 242 244 245 243 242 244 239 251 257 262 264 256 247 254 258 260 260 266 270 273 275 275 272 270 278 281 292 303 310 318 337 335 329 331 335